| time (UTC) | temp F | wind direction | speed MPH | gust MPH | rain 1hr in | rain 24hr in | rain mn in | humidity % | barometer mb |
| 20260510040938 | 52 | 0 | 0.0 | 3.0 | 0.00 | 0.00 | 0.00 | 34 | 1006.1 |
| 20260510035918 | 54 | 0 | 0.0 | 0.0 | 0.00 | 0.00 | 0.00 | 32 | 1006.0 |
| 20260510034847 | 55 | 0 | 0.0 | 0.0 | 0.00 | 0.00 | 0.00 | 31 | 1005.8 |
| 20260510033849 | 56 | 0 | 0.0 | 1.0 | 0.00 | 0.00 | 0.00 | 30 | 1005.7 |
| 20260510032903 | 58 | 0 | 0.0 | 0.0 | 0.00 | 0.00 | 0.00 | 28 | 1005.5 |
| 20260510030739 | 60 | 0 | 0.0 | 1.0 | 0.00 | 0.00 | 0.00 | 26 | 1005.2 |
| 20260510025713 | 60 | 0 | 0.0 | 0.0 | 0.00 | 0.00 | 0.00 | 26 | 1005.1 |
| 20260510023454 | 62 | 0 | 0.0 | 0.0 | 0.00 | 0.00 | 0.00 | 25 | 1004.9 |
| 20260510021321 | 64 | 0 | 0.0 | 0.0 | 0.00 | 0.00 | 0.00 | 24 | 1004.7 |
| 20260510020344 | 65 | 0 | 0.0 | 0.0 | 0.00 | 0.00 | 0.00 | 24 | 1004.9 |
| 20260510015356 | 65 | 344 | 6.0 | 0.0 | 0.00 | 0.00 | 0.00 | 24 | 1004.8 |
| 20260510013253 | 67 | 343 | 16.0 | 23.0 | 0.00 | 0.00 | 0.00 | 23 | 1004.4 |
| 20260510012306 | 67 | 330 | 13.0 | 19.0 | 0.00 | 0.00 | 0.00 | 22 | 1004.4 |
| 20260510011241 | 67 | 349 | 13.0 | 25.0 | 0.00 | 0.00 | 0.00 | 23 | 1004.2 |
| 20260510010301 | 67 | 340 | 14.0 | 25.0 | 0.00 | 0.00 | 0.00 | 22 | 1004.2 |
| 20260510005240 | 68 | 347 | 9.0 | 21.0 | 0.00 | 0.00 | 0.00 | 22 | 1004.2 |
| 20260510004257 | 68 | 336 | 9.0 | 16.0 | 0.00 | 0.00 | 0.00 | 21 | 1003.9 |
| 20260510002140 | 71 | 0 | 4.0 | 15.0 | 0.00 | 0.00 | 0.00 | 20 | 1003.6 |
| 20260510001133 | 70 | 0 | 7.0 | 15.0 | 0.00 | 0.00 | 0.00 | 21 | 1003.6 |
| 20260510000150 | 71 | 331 | 15.0 | 20.0 | 0.00 | 0.00 | 0.00 | 20 | 1003.6 |
| 20260509235133 | 69 | 348 | 17.0 | 22.0 | 0.00 | 0.00 | 0.00 | 22 | 1003.5 |
| 20260509234118 | 70 | 355 | 17.0 | 23.0 | 0.00 | 0.00 | 0.00 | 21 | 1003.5 |
| 20260509233057 | 70 | 11 | 19.0 | 27.0 | 0.00 | 0.00 | 0.00 | 22 | 1003.5 |
| 20260509232028 | 71 | 355 | 19.0 | 27.0 | 0.00 | 0.00 | 0.00 | 21 | 1003.6 |
| 20260509231035 | 72 | 338 | 20.0 | 28.0 | 0.00 | 0.00 | 0.00 | 21 | 1003.5 |
| 20260509230001 | 73 | 0 | 19.0 | 28.0 | 0.00 | 0.00 | 0.00 | 21 | 1003.6 |
| 20260509224955 | 72 | 355 | 20.0 | 32.0 | 0.00 | 0.00 | 0.00 | 21 | 1003.5 |
| 20260509222821 | 72 | 355 | 20.0 | 28.0 | 0.00 | 0.00 | 0.00 | 20 | 1003.8 |
| 20260509221755 | 74 | 331 | 18.0 | 25.0 | 0.00 | 0.00 | 0.00 | 19 | 1003.5 |
| 20260509220817 | 73 | 348 | 17.0 | 25.0 | 0.00 | 0.00 | 0.00 | 18 | 1003.6 |
| 20260509215749 | 73 | 0 | 15.0 | 21.0 | 0.00 | 0.00 | 0.00 | 17 | 1003.7 |
| 20260509214749 | 73 | 0 | 9.0 | 17.0 | 0.00 | 0.00 | 0.00 | 18 | 1003.5 |
| 20260509201644 | 75 | 335 | 7.0 | 15.0 | 0.00 | 0.00 | 0.00 | 16 | 1004.2 |
| 20260509200702 | 76 | 0 | 8.0 | 21.0 | 0.00 | 0.00 | 0.00 | 15 | 1004.3 |
| 20260509195642 | 74 | 262 | 7.0 | 20.0 | 0.00 | 0.00 | 0.00 | 15 | 1004.2 |
| 20260509194623 | 74 | 0 | 4.0 | 7.0 | 0.00 | 0.00 | 0.00 | 17 | 1004.4 |
| 20260509193557 | 74 | 349 | 7.0 | 28.0 | 0.00 | 0.00 | 0.00 | 15 | 1004.1 |
| 20260509192602 | 74 | 339 | 10.0 | 21.0 | 0.00 | 0.00 | 0.00 | 16 | 1004.7 |
| 20260509191552 | 74 | 0 | 8.0 | 21.0 | 0.00 | 0.00 | 0.00 | 16 | 1004.8 |
| 20260509190550 | 76 | 0 | 8.0 | 18.0 | 0.00 | 0.00 | 0.00 | 15 | 1004.9 |
| 20260509185540 | 75 | 340 | 8.0 | 19.0 | 0.00 | 0.00 | 0.00 | 15 | 1005.0 |
| 20260509184548 | 76 | 265 | 11.0 | 20.0 | 0.00 | 0.00 | 0.00 | 16 | 1005.2 |
| 20260509183541 | 76 | 0 | 8.0 | 20.0 | 0.00 | 0.00 | 0.00 | 16 | 1005.1 |
| 20260509182526 | 76 | 238 | 6.0 | 17.0 | 0.00 | 0.00 | 0.00 | 17 | 1005.4 |
| 20260509181522 | 75 | 0 | 7.0 | 17.0 | 0.00 | 0.00 | 0.00 | 17 | 1005.5 |
| 20260509180528 | 74 | 0 | 9.0 | 23.0 | 0.00 | 0.00 | 0.00 | 18 | 1005.7 |
| 20260509174341 | 74 | 0 | 11.0 | 22.0 | 0.00 | 0.00 | 0.00 | 17 | 1005.7 |
| 20260509172202 | 74 | 0 | 13.0 | 29.0 | 0.00 | 0.00 | 0.00 | 18 | 1005.9 |
| 20260509164917 | 74 | 0 | 6.0 | 22.0 | 0.00 | 0.00 | 0.00 | 18 | 1006.0 |
| 20260509161648 | 72 | 336 | 14.0 | 22.0 | 0.00 | 0.00 | 0.00 | 18 | 1006.1 |
| 20260509160651 | 71 | 0 | 7.0 | 16.0 | 0.00 | 0.00 | 0.00 | 18 | 1006.0 |
| 20260509155629 | 72 | 0 | 11.0 | 20.0 | 0.00 | 0.00 | 0.00 | 19 | 1006.1 |
| 20260509154638 | 71 | 0 | 11.0 | 20.0 | 0.00 | 0.00 | 0.00 | 18 | 1006.1 |
| 20260509153636 | 71 | 332 | 7.0 | 20.0 | 0.00 | 0.00 | 0.00 | 18 | 1006.1 |
| 20260509152637 | 70 | 342 | 9.0 | 15.0 | 0.00 | 0.00 | 0.00 | 19 | 1006.1 |
| 20260509145404 | 68 | 0 | 4.0 | 11.0 | 0.00 | 0.00 | 0.00 | 20 | 1006.3 |
| 20260509144352 | 67 | 0 | 4.0 | 12.0 | 0.00 | 0.00 | 0.00 | 20 | 1006.3 |
| 20260509143353 | 66 | 0 | 4.0 | 11.0 | 0.00 | 0.00 | 0.00 | 20 | 1006.3 |
| 20260509142354 | 65 | 0 | 1.0 | 10.0 | 0.00 | 0.00 | 0.00 | 22 | 1006.4 |
| 20260509141406 | 63 | 0 | 0.0 | 5.0 | 0.00 | 0.00 | 0.00 | 24 | 1006.3 |
| 20260509140406 | 61 | 0 | 0.0 | 2.0 | 0.00 | 0.00 | 0.00 | 26 | 1006.4 |
| 20260509135352 | 60 | 0 | 0.0 | 0.0 | 0.00 | 0.00 | 0.00 | 27 | 1006.4 |
| 20260509133221 | 56 | 0 | 0.0 | 0.0 | 0.00 | 0.00 | 0.00 | 32 | 1006.5 |
| 20260509132220 | 53 | 0 | 0.0 | 0.0 | 0.00 | 0.00 | 0.00 | 35 | 1006.4 |
| 20260509131235 | 51 | 0 | 0.0 | 0.0 | 0.00 | 0.00 | 0.00 | 36 | 1006.4 |
| 20260509130239 | 50 | 0 | 0.0 | 0.0 | 0.00 | 0.00 | 0.00 | 37 | 1006.3 |
| 20260509125208 | 49 | 0 | 0.0 | 0.0 | 0.00 | 0.00 | 0.00 | 37 | 1006.1 |
| 20260509124224 | 49 | 0 | 0.0 | 0.0 | 0.00 | 0.00 | 0.00 | 37 | 1005.9 |
| 20260509123208 | 48 | 0 | 0.0 | 0.0 | 0.00 | 0.00 | 0.00 | 38 | 1005.9 |
| 20260509122219 | 48 | 0 | 0.0 | 0.0 | 0.00 | 0.00 | 0.00 | 37 | 1005.7 |
| 20260509121231 | 48 | 0 | 0.0 | 1.0 | 0.00 | 0.00 | 0.00 | 37 | 1005.5 |
| 20260509120206 | 49 | 0 | 0.0 | 0.0 | 0.00 | 0.00 | 0.00 | 36 | 1005.4 |
| 20260509115219 | 49 | 0 | 0.0 | 0.0 | 0.00 | 0.00 | 0.00 | 36 | 1005.5 |
| 20260509114207 | 48 | 0 | 0.0 | 0.0 | 0.00 | 0.00 | 0.00 | 37 | 1005.3 |
| 20260509113230 | 49 | 0 | 0.0 | 0.0 | 0.00 | 0.00 | 0.00 | 36 | 1005.2 |
| 20260509112203 | 51 | 0 | 0.0 | 1.0 | 0.00 | 0.00 | 0.00 | 34 | 1005.1 |
| 20260509111138 | 50 | 0 | 0.0 | 0.0 | 0.00 | 0.00 | 0.00 | 35 | 1004.8 |
| 20260509110112 | 50 | 0 | 0.0 | 7.0 | 0.00 | 0.00 | 0.00 | 36 | 1004.9 |
| 20260509103946 | 50 | 0 | 0.0 | 0.0 | 0.00 | 0.00 | 0.00 | 35 | 1005.0 |
| 20260509102933 | 49 | 0 | 0.0 | 0.0 | 0.00 | 0.00 | 0.00 | 36 | 1005.1 |
| 20260509101928 | 49 | 0 | 0.0 | 0.0 | 0.00 | 0.00 | 0.00 | 36 | 1005.1 |
| 20260509100907 | 51 | 0 | 0.0 | 0.0 | 0.00 | 0.00 | 0.00 | 33 | 1005.2 |
| 20260509095910 | 52 | 0 | 0.0 | 0.0 | 0.00 | 0.00 | 0.00 | 33 | 1005.3 |
| 20260509094850 | 52 | 0 | 0.0 | 0.0 | 0.00 | 0.00 | 0.00 | 32 | 1005.4 |
| 20260509093835 | 52 | 0 | 0.0 | 0.0 | 0.00 | 0.00 | 0.00 | 32 | 1005.4 |
| 20260509092809 | 53 | 0 | 0.0 | 0.0 | 0.00 | 0.00 | 0.00 | 32 | 1005.4 |
| 20260509091744 | 52 | 0 | 0.0 | 0.0 | 0.00 | 0.00 | 0.00 | 33 | 1005.2 |
| 20260509090713 | 51 | 0 | 0.0 | 0.0 | 0.00 | 0.00 | 0.00 | 33 | 1005.2 |
| 20260509084547 | 52 | 0 | 0.0 | 0.0 | 0.00 | 0.00 | 0.00 | 33 | 1005.2 |
| 20260509083533 | 51 | 0 | 0.0 | 0.0 | 0.00 | 0.00 | 0.00 | 33 | 1005.1 |
| 20260509081344 | 51 | 0 | 0.0 | 0.0 | 0.00 | 0.00 | 0.00 | 33 | 1005.2 |
| 20260509072905 | 48 | 0 | 0.0 | 0.0 | 0.00 | 0.00 | 0.00 | 36 | 1005.3 |
| 20260509071901 | 48 | 0 | 0.0 | 1.0 | 0.00 | 0.00 | 0.00 | 35 | 1005.4 |
| 20260509070846 | 49 | 0 | 0.0 | 0.0 | 0.00 | 0.00 | 0.00 | 35 | 1005.5 |
| 20260509065850 | 49 | 0 | 0.0 | 0.0 | 0.00 | 0.00 | 0.00 | 33 | 1005.5 |
| 20260509064915 | 50 | 0 | 0.0 | 0.0 | 0.00 | 0.00 | 0.00 | 32 | 1005.5 |
| 20260509063920 | 52 | 0 | 0.0 | 0.0 | 0.00 | 0.00 | 0.00 | 31 | 1005.6 |
| 20260509062937 | 52 | 0 | 0.0 | 0.0 | 0.00 | 0.00 | 0.00 | 31 | 1005.7 |
| 20260509062000 | 53 | 0 | 0.0 | 0.0 | 0.00 | 0.00 | 0.00 | 30 | 1005.7 |
| 20260509055816 | 54 | 0 | 0.0 | 2.0 | 0.00 | 0.00 | 0.00 | 29 | 1005.7 |
| 20260509054812 | 54 | 0 | 0.0 | 3.0 | 0.00 | 0.00 | 0.00 | 30 | 1005.7 |
| 20260509053813 | 53 | 328 | 0.0 | 2.0 | 0.00 | 0.00 | 0.00 | 31 | 1005.8 |
| 20260509052834 | 51 | 328 | 0.0 | 1.0 | 0.00 | 0.00 | 0.00 | 32 | 1005.8 |
| 20260509051830 | 51 | 328 | 0.0 | 2.0 | 0.00 | 0.00 | 0.00 | 31 | 1005.8 |
| 20260509050808 | 53 | 334 | 0.0 | 0.0 | 0.00 | 0.00 | 0.00 | 29 | 1005.8 |
| 20260509045753 | 54 | 334 | 0.0 | 0.0 | 0.00 | 0.00 | 0.00 | 28 | 1005.7 |
| 20260509044729 | 55 | 334 | 0.0 | 0.0 | 0.00 | 0.00 | 0.00 | 28 | 1005.7 |
| 20260509042625 | 55 | 334 | 0.0 | 0.0 | 0.00 | 0.00 | 0.00 | 28 | 1005.7 |
| 20260509041615 | 56 | 334 | 0.0 | 0.0 | 0.00 | 0.00 | 0.00 | 28 | 1005.7 |